Regional Weather Roundup
Issued by NWS

Home | Current Version | Previous Version | Graphics & Text | Print | Product List | Glossary On
Versions: 1 2 3 4 5 6 7 8 9 10 11 12 13 14 15 16 17 18 19 20 21 22 23 24 25 26 27 28 29 30 31 32 33 34 35 36 37 38 39 40 41 42 43 44 45 46 47 48 49 50
000
ASUS45 KSLC 041110
RWRUT

UTAH REGIONAL WEATHER ROUNDUP
NATIONAL WEATHER SERVICE SALT LAKE CITY UT
500 AM MDT MON MAY 04 2015

UTZ001>011-023>025-041200-

NORTHERN UTAH

CITY           SKY/WX    TMP DP  RH WIND       PRES   REMARKS
BRIGHAM CITY   MOCLDY    54  43  67 N5        29.95R
HILL AFB       CLOUDY    59  40  50 SE7       29.95R
LOGAN          CLEAR     44  40  85 N5        29.96R
OGDEN          MOCLDY    58  41  53 S5        29.93R
PROVO AIRPORT  MOCLDY    57  46  67 W5        29.97S
SALT LAKE CITY CLOUDY    59  45  59 S12       29.93S
VERNAL         PTCLDY    48  36  63 W5        30.01S
WENDOVER       CLOUDY    61  36  39 NE5       29.92R
HEBER CITY     CLOUDY    52  41  66 CALM      30.03S
WEST JORDAN    PTCLDY    57  46  67 SE3       29.97S

$$

UTZ012>022-026-027-041200-

SOUTHERN/CENTRAL UTAH

CITY           SKY/WX    TMP DP  RH WIND       PRES   REMARKS
BLANDING       MOCLDY    47  37  66 N8        30.08S
BRYCE CANYON   CLOUDY    41  35  79 CALM      30.09R
CEDAR CITY     CLOUDY    50  44  80 E10       30.00S
DELTA          CLOUDY    57  40  52 S9        29.95S
HANKSVILLE     CLOUDY    59  39  47 W3        29.97R
MILFORD        MOCLDY    51  38  60 SE5       29.97S
MOAB/CYNLANDS  CLOUDY    58  42  55 SE5       29.95R
PRICE          MOCLDY    52  38  58 N9        30.01S
ST GEORGE      CLOUDY    64  39  39 CALM      29.90S
KANAB          CLOUDY    48  41  76 CALM      30.02S

$$

REGIONAL REPORTS     COLORADO/ARIZONA

CITY           SKY/WX    TMP DP  RH WIND       PRES   REMARKS
CRAIG, CO      CLOUDY    45  41  86 NW3       30.04F
GRAND JUNCTION MOCLDY    54  42  64 E10       29.99S
RIFLE          MOCLDY    47  45  93 CALM      30.05S
MONTROSE       MOCLDY    46  38  73 CALM      30.06S
CORTEZ         CLEAR     41  35  79 E7        30.04S
PAGE, AZ       CLOUDY    60  39  45 CALM      29.94S
GRAND CANYON   MOCLDY    32  30  92 CALM      30.04F
KINGMAN        PTCLDY    64  41  42 S10       29.87S
FLAGSTAFF      MOCLDY    43  38  82 NE3       30.06S

$$

REGIONAL REPORTS    NEVADA/IDAHO/WYOMING

CITY           SKY/WX    TMP DP  RH WIND       PRES   REMARKS
LAS VEGAS, NV  PTCLDY    73  29  19 S12       29.74R
ELY            MOCLDY    46  35  65 S12       30.00S
ELKO           CLOUDY    44  33  65 CALM      29.95R
POCATELLO, ID  CLEAR     46  37  71 SW9       29.95R
BURLEY         CLEAR     43  37  79 S3        29.90S
EVANSTON, WY   MOCLDY    42  37  82 E8        30.07S
ROCK SPRINGS   PTCLDY    41  36  82 SE3       30.06S
KEMMERER       MOCLDY    36  34  93 N8        30.09R WCI  29

$$



USA.gov is the U.S. government's official web portal to all federal, state and local government web resources and services.